"Pseudo-MPEC" for C14WU15

Created 2025 Jul 6 18:35:03 UT using Find_Orb

Click here for an explanation of pseudo-MPECs

 
 Astrometry: 
     C14WU15* C2025 06 30.41742920 36 44.305-01 49 08.44   ~6UAo 22.26GVNEOCPV00
     C14WU15  C2025 06 30.42303820 36 42.196-01 49 32.27   ~6UAo 22.31GVNEOCPV00
     C14WU15  C2025 06 30.42862020 36 40.097-01 49 54.77   ~6UAo 21.44GVNEOCPV00
     C14WU15  C2025 06 30.43420620 36 38.030-01 50 18.96   ~6UAo 22.53GVNEOCPV00
     C14WU15 mC2025 06 30.46202120 36 27.680-01 52 17.36   ~71J5 22.38GVNEOCPV00
     C14WU15 mC2025 06 30.46281520 36 27.342-01 52 19.06   ~71J5 22.48GVNEOCPV00
     C14WU15 mC2025 06 30.46360920 36 27.068-01 52 23.23   ~71J5 22.04GVNEOCPV00
     C14WU15 mC2025 06 30.46440220 36 26.780-01 52 26.26   ~71J5 22.86GVNEOCPV00
     C14WU15 mC2025 06 30.46897520 36 25.052-01 52 45.91   ~6UBo 22.92GVNEOCPV00
     C14WU15 mC2025 06 30.46976820 36 24.775-01 52 49.33   ~6UBo 22.87GVNEOCPV00
     C14WU15 mC2025 06 30.47056220 36 24.502-01 52 52.82   ~6UBo 23.13GVNEOCPV00
     C14WU15 mC2025 06 30.47135720 36 24.188-01 52 55.63   ~6UBo 23.46GVNEOCPV00

Station data:
(V00) Kitt Peak-Bok  (N31.963125 W111.600190)  US/Arizona.  Observers T. A.
   Pruyne, B. M. Africano, E. J. Christensen, G. A. Farneth, D. C. Fuls, A.
   R. Gibbs, A. D. Grauer, H. Gröller, J. A. Johnson, R. A. Kowalski, S. M.
   Larson, G. J. Leonard, D. Rankin, R. L. Seaman, F. C. Shelly, K. W.
   Wierzchoś. 2.25-m reflector + 4x4K mosaic CCD.

Orbital elements:  C14WU15
   Perihelion 2025 Mar 3.07511 +/- 108 TT =  1:48:09 (JD 2460737.57511)
Epoch 2025 Jun 30.0 TT = JDT 2460856.5   Earth MOID: 0.0984   Ve: 0.0972
M 154.97896743 +/- 70               (J2000 ecliptic)             AutoNEOCP
n   1.30316676 +/- 0.376            Peri.    1.61500 +/- 29
a   0.83011077 +/- 0.159            Node   112.33631 +/- 27
e   0.3760488 +/- 0.178             Incl.   10.48881 +/- 30
P   0.756/276.245d         H 25.60  G  0.15   U 12.1  SR
q 0.51794854 +/- 0.294    Q 1.14227301 +/- 0.346
From 12 observations 2025 June 30 (77.7 min); mean residual 0".34
Residuals in arcseconds: 
250630 V00  .20+  .22-    250630 V00  .30+  .89-    250630 V00  .30-  .07-    
250630 V00  .02-  .38-    250630 V00  .33-  .76+    250630 V00  .03-  .14-    
250630 V00  .25-  .68+    250630 V00  .01-  .06-    250630 V00  .30+  .28-    
250630 V00  .02+  .06+    250630 V00  .10+  .26+    250630 V00  .02+  .27+    

Ephemerides (geocentric):
Date (UTC) HH   RA             Dec           delta  r     elong  mag " sig PA
---- --------  ------------   ------------  ------ ------ -----  --- --------
2025 07 06 19  19 54 50.742   -10 04 45.82  .12426 1.1357 162.4 22.2  53d  93
2025 07 06 20  19 54 32.643   -10 08 13.94  .12423 1.1357 162.5 22.2  53d  93
2025 07 06 21  19 54 14.525   -10 11 42.14  .12420 1.1358 162.7 22.2  53d  93
2025 07 06 22  19 53 56.390   -10 15 10.42  .12418 1.1358 162.8 22.2  53d  92
2025 07 06 23  19 53 38.236   -10 18 38.79  .12415 1.1359 162.9 22.2  54d  92
2025 07 07 00  19 53 20.065   -10 22 07.24  .12412 1.1359 163.0 22.2  54d  92
2025 07 07 01  19 53 01.877   -10 25 35.76  .12409 1.1360 163.2 22.2  54d  92
2025 07 07 02  19 52 43.671   -10 29 04.36  .12407 1.1360 163.3 22.2  54d  92
2025 07 07 03  19 52 25.447   -10 32 33.03  .12404 1.1361 163.4 22.2  54d  92
2025 07 07 04  19 52 07.206   -10 36 01.77  .12401 1.1361 163.5 22.2  54d  92
2025 07 07 05  19 51 48.948   -10 39 30.58  .12399 1.1361 163.7 22.2  55d  92
2025 07 07 06  19 51 30.673   -10 42 59.46  .12396 1.1362 163.8 22.2  55d  92
2025 07 07 07  19 51 12.381   -10 46 28.40  .12394 1.1362 163.9 22.2  55d  92
2025 07 07 08  19 50 54.072   -10 49 57.40  .12392 1.1363 164.0 22.1  55d  92
2025 07 07 09  19 50 35.746   -10 53 26.46  .12389 1.1363 164.2 22.1  55d  92
2025 07 07 10  19 50 17.403   -10 56 55.58  .12387 1.1363 164.3 22.1  55d  92
2025 07 07 11  19 49 59.044   -11 00 24.76  .12385 1.1364 164.4 22.1  55d  92
2025 07 07 12  19 49 40.668   -11 03 53.99  .12382 1.1364 164.5 22.1  55d  92
2025 07 07 13  19 49 22.276   -11 07 23.27  .12380 1.1365 164.7 22.1  56d  92
2025 07 07 14  19 49 03.867   -11 10 52.61  .12378 1.1365 164.8 22.1  56d  92
2025 07 07 15  19 48 45.442   -11 14 21.99  .12376 1.1366 164.9 22.1  56d  92
2025 07 07 16  19 48 27.001   -11 17 51.41  .12374 1.1366 165.0 22.1  56d  92
2025 07 07 17  19 48 08.544   -11 21 20.88  .12372 1.1366 165.1 22.1  56d  92
2025 07 07 18  19 47 50.071   -11 24 50.39  .12370 1.1367 165.3 22.1  56d  91
2025 07 07 19  19 47 31.582   -11 28 19.93  .12368 1.1367 165.4 22.1  56d  91
2025 07 07 20  19 47 13.077   -11 31 49.52  .12366 1.1368 165.5 22.1  56d  91
2025 07 07 21  19 46 54.557   -11 35 19.14  .12364 1.1368 165.6 22.1  57d  91
2025 07 07 22  19 46 36.021   -11 38 48.79  .12362 1.1368 165.8 22.1  57d  91
2025 07 07 23  19 46 17.470   -11 42 18.47  .12361 1.1369 165.9 22.1  57d  91
2025 07 08 00  19 45 58.904   -11 45 48.18  .12359 1.1369 166.0 22.1  57d  91
2025 07 08 01  19 45 40.322   -11 49 17.91  .12357 1.1370 166.1 22.1  57d  91
2025 07 08 02  19 45 21.725   -11 52 47.67  .12356 1.1370 166.3 22.1  57d  91
2025 07 08 03  19 45 03.114   -11 56 17.45  .12354 1.1370 166.4 22.1  57d  91
2025 07 08 04  19 44 44.487   -11 59 47.25  .12352 1.1371 166.5 22.1  57d  91
2025 07 08 05  19 44 25.846   -12 03 17.06  .12351 1.1371 166.6 22.1  57d  91
2025 07 08 06  19 44 07.190   -12 06 46.89  .12349 1.1372 166.7 22.1  57d  91
2025 07 08 07  19 43 48.519   -12 10 16.73  .12348 1.1372 166.9 22.1  57d  91
2025 07 08 08  19 43 29.834   -12 13 46.59  .12347 1.1372 167.0 22.0  58d  91
2025 07 08 09  19 43 11.134   -12 17 16.45  .12345 1.1373 167.1 22.0  58d  91
2025 07 08 10  19 42 52.421   -12 20 46.31  .12344 1.1373 167.2 22.0  58d  91
2025 07 08 11  19 42 33.693   -12 24 16.19  .12343 1.1373 167.3 22.0  58d  91
2025 07 08 12  19 42 14.951   -12 27 46.06  .12342 1.1374 167.5 22.0  58d  91
2025 07 08 13  19 41 56.196   -12 31 15.93  .12340 1.1374 167.6 22.0  58d  91
2025 07 08 14  19 41 37.426   -12 34 45.80  .12339 1.1375 167.7 22.0  58d  91
2025 07 08 15  19 41 18.643   -12 38 15.66  .12338 1.1375 167.8 22.0  58d  91
2025 07 08 16  19 40 59.846   -12 41 45.52  .12337 1.1375 167.9 22.0  58d  91
2025 07 08 17  19 40 41.036   -12 45 15.36  .12336 1.1376 168.1 22.0  58d  90
2025 07 08 18  19 40 22.212   -12 48 45.20  .12335 1.1376 168.2 22.0  58d  90